Regional Weather Roundup
Issued by NWS

Home | Current Version | Previous Version | Text Only | Print | Product List | Glossary On
Versions: 1 2 3 4 5 6 7 8 9 10 11 12 13 14 15 16 17 18 19 20 21 22 23 24 25 26 27 28 29 30 31 32 33 34 35 36 37 38 39 40 41 42 43 44 45 46 47 48 49 50
000
ASUS42 KKEY 051310
RWRKEY

FLORIDA REGIONAL WEATHER ROUNDUP FOR THE FLORIDA KEYS
NATIONAL WEATHER SERVICE KEY WEST FLORIDA
800 AM EST THU MAR 05 2015

...SOUTH FLORIDA AND THE KEYS...

CITY           SKY/WX    TMP DP  RH WIND       PRES   REMARKS
FORT MYERS     SUNNY     70  69  97 SE8       30.08R
SW REGIONAL AP SUNNY     69  68  96 SE7       30.09R
NAPLES         SUNNY     70  69  97 SE7       30.08R
MIAMI          MOSUNNY   77  69  76 SE13      30.11R
WEST KENDALL   SUNNY     75  69  81 SE10      30.10R
HOMESTEAD      SUNNY     77  70  78 SE12      30.10R
MARATHON       MOSUNNY   77  73  87 SE9G18    30.09R
BOCA CHICA NAS SUNNY     77  72  84 SE16      30.07R
KEY WEST INTL  SUNNY     77  73  87 SE15      30.08R

...INTERNATIONAL WEATHER...

CITY           SKY/WX    TMP DP  RH WIND       PRES   REMARKS
NASSAU BAHAMAS PTSUNNY   75  70  83 SE10      30.15R
CANCUN MEXICO  MOSUNNY   79  72  78 SE14      29.98R
COZUMEL MEXICO MOSUNNY   73  72  94 SE6       29.98R

ADJACENT COASTAL WATERS...

STATION/POSITION TIME  SKY/WX   TEMP    WIND        PRES    WAVE
                                AIR SEA DIR/SP/G            HT/PER
                 (UTC)          (F)     (DEG/KT/KT) (MB)    (FT/S)
PULASKI SHOAL LI 1200            75     140/ 13/ 14 1017.2R
SAND KEY         1250            76     140/ 17/ 19 1018.1R
SOMBRERO KEY     1300            76     130/ 18/ 20 1019.4R
LONG KEY         1200            76 76  130/ 14/ 15 1019.2R
MOLASSES REEF    1300            76 75  150/ 14/ 15 1019.3R
FOWEY ROCKS      NOT AVBL
Buoy 42080       NOT AVBL

$$


USA.gov is the U.S. government's official web portal to all federal, state and local government web resources and services.